Tracking 19193 objects as of 22-Jun-2018
HD Live streaming from Space Station
objects crossing your sky now

PSLV R/B

Track PSLV R/B now!
10-day predictions


NORAD ID: 38757
Int'l Code: 2012-047C
Perigee: 639.9 km
Apogee: 648.7 km
Inclination: 98.1 °
Period: 97.5 minutes
Semi major axis: 7015 km
RCS: 5.395 m2 (large)
Launch date: September 9, 2012
Source: India (IND)
Launch site: SRIHARIKOTA (SRI)

Note: This is a ROCKET BODY
aabbcc
Your satellite tracking list
Your tracking list is empty




NASA's NSSDC Master Catalog

Two Line Element Set (TLE):
1 38757U 12047C   18172.89452472 +.00000048 +00000-0 +14129-4 0  9997
2 38757 098.0741 276.4653 0006264 029.1666 330.9893 14.77531073311628
Source of the keplerian elements: AFSPC